sat.trackr.live / text

‹ back to catalog

ONEWEB-0134

NORAD 47280 · 2020-100Y

PAYLOAD ACTIVE UNKNOWN

§ Identity

Operator
Country
UK
Launch date
2020-12-18
Launch site
VOSTO
Launch vehicle
Mass (kg)
RCS (m²)

Purposes: comms

External: N2YO · Heavens-Above · Gunter

§ Orbital elements

Epoch: 2026-05-25T02:26:42.101952Z

Period
109.72 min
Inclination
87.8963°
Eccentricity
0.0001791
Mean motion
13.12433548 rev/d
Perigee alt
1,212.4 km
Apogee alt
1,215.1 km
Semi-major
7,591.9 km
B*
6.4500e-3
RAAN
355.2352°
Arg perigee
82.9919°
Mean anomaly
277.1413°
Rev number
26,168

§ Raw data

ONEWEB-01341 47280U 20100Y   26145.10187618  .00002333  00000+0  64500-2 0  99912 47280  87.8963 355.2352 0001791  82.9919 277.1413 13.12433548261687

JSON: /api/v1/satellites/47280 · /tle

For live sub-satellite position, see the globe view (requires WebGL).

§ Visibility from observer

Set your observer location to see the next 7 days of passes ≥ 10°. The values pass through the URL so the page stays shareable.

No JS? Fill the form by hand. The geolocation button needs JavaScript.